#timestamp,LO_Frequency,Hit,StdDev 
1576947615.2,286047002.6,N
1576947635.9,286047001.5,N
1576947655.7,286047002.6,N
1576947675.6,286047001.0,N
1576947695.4,286047002.4,N
1576947715.3,286047003.6,N
1576947735.1,286047007.2,N
1576947736.0,286047007.2,N
1576947755.8,286047006.7,N
1576947775.7,286047005.7,N
1576947795.5,286047004.9,N
1576947815.3,286047004.9,N
1576947835.2,286047004.7,N
1576947855.0,286047003.7,N
1576947855.9,286047003.7,N
1576947875.8,286047004.2,N
1576947895.6,286047001.4,N
1576947915.4,286047002.4,N
1576947935.3,286046999.9,N
1576947955.1,286047002.0,N
1576947975.9,286047001.5,N
1576947995.7,286047001.4,N
1576948015.5,286047002.4,N
1576948035.4,286047000.5,N
1576948055.2,286047000.7,N
1576948075.0,286046998.5,N
1576948075.9,286046998.5,N
1576948095.8,286046998.3,N
1576948145.7,286046998.8,E
1576948155.6,286047000.5,N
1576948175.4,286047002.6,P
1576948195.2,286047000.2,N
1576948215.1,286047000.6,N
1576948216.0,286047000.6,N
1576948235.8,286046998.5,N
1576948255.7,286046999.6,N
1576948275.5,286046999.3,N
1576948295.3,286046999.5,N
1576948315.2,286046997.2,N
1576948335.0,286046998.6,N
1576948335.9,286046998.6,N
1576948355.8,286047000.0,N
1576948375.6,286047004.4,Y
1576948395.4,286047005.9,P
1576948415.3,286047003.5,N
1576948435.1,286047005.9,N
1576948455.8,286047002.0,N
1576948475.7,286047002.6,N
1576948495.5,286047001.9,N
1576948515.4,286046999.8,N
1576948535.2,286047000.9,N
1576948555.0,286047000.9,N
1576948555.9,286047000.9,N
1576948575.8,286047000.6,N
1576948595.6,286047001.6,N
1576948615.4,286047002.3,N
1576948635.3,286047002.0,N
1576948655.1,286047004.0,N
1576948675.9,286047003.7,N
1576948695.7,286047001.4,N
1576948715.5,286047001.8,N
1576948735.4,286047002.3,N
1576948755.2,286047001.3,N
1576948775.0,286047001.6,N
1576948775.9,286047001.6,N
1576948795.8,286047001.8,N
1576948815.6,286047002.4,N
1576948835.5,286047001.4,N
1576948855.3,286047005.1,Y
1576948875.1,286047004.2,P
1576948895.9,286047003.8,P
1576948915.7,286047001.3,N
1576948935.6,286047003.8,Y
1576948955.4,286046999.9,P
1576948975.2,286046998.1,N
1576948995.1,286046998.9,N
1576948996.0,286046998.9,N
1576949015.8,286046998.2,N
1576949035.6,286047001.1,N
1576949055.5,286046999.3,N
1576949075.3,286046996.7,N
1576949095.2,286046999.2,N
1576949115.9,286046997.6,N
1576949135.7,286046997.5,N
1576949155.6,286046993.4,Y
1576949175.4,286046996.2,P
1576949195.2,286046995.8,N
1576949215.1,286046995.9,N
1576949216.0,286046995.9,Y
1576949235.8,286046998.6,P
1576949255.7,286046998.7,N
1576949275.5,286047000.5,N
1576949295.3,286047000.8,N
1576949315.2,286046999.8,N
1576949335.0,286047001.5,N
1576949335.9,286047001.5,N
1576949355.8,286047003.0,N
1576949375.6,286047004.3,N
1576949395.4,286047002.2,N
1576949415.3,286046999.9,N
1576949435.1,286047001.1,N
1576949455.8,286046998.5,N
1576949475.7,286046999.5,N
1576949495.5,286047000.5,N
1576949515.4,286047000.6,N
1576949535.2,286047002.4,N
1576949555.0,286047002.8,N
1576949555.9,286047002.8,N
1576949605.8,286046998.4,E
1576949615.7,286047000.7,N
1576949635.6,286047000.3,P
1576949655.4,286047002.7,P
1576949675.2,286047002.3,N
1576949695.1,286047004.1,Y
1576949696.0,286047004.1,P
1576949715.8,286047002.1,N
1576949735.7,286046999.8,N
1576949755.5,286047000.7,N
1576949775.3,286046999.4,N
1576949795.2,286046997.1,N
1576949815.0,286046998.9,N
1576949815.9,286046998.9,N
1576949835.8,286046998.4,N
1576949855.6,286046998.1,N
1576949875.4,286046998.2,N
1576949895.3,286047001.2,N
1576949915.1,286047001.1,N
1576949935.8,286046999.9,N
1576949955.7,286046998.1,N
1576949975.5,286047001.0,N
1576949995.4,286047001.1,N
1576950015.2,286046998.2,N
1576950035.0,286047002.1,N
1576950035.9,286047002.1,N
1576950055.8,286047000.8,N
1576950075.6,286047001.2,N
1576950095.5,286047001.1,N
1576950115.3,286047001.2,N
1576950135.1,286046998.9,N
1576950155.9,286046997.4,N
1576950175.7,286046998.4,N
1576950195.5,286046997.7,N
1576950215.4,286046996.8,N
1576950235.2,286046995.1,N
1576950255.1,286046997.8,N
1576950256.0,286046997.8,N
1576950275.8,286046997.2,N
1576950295.6,286046997.3,N
1576950315.5,286046997.1,N
1576950335.3,286046999.2,N
1576950355.1,286046999.4,N
1576950375.9,286046999.6,N
1576950395.7,286047001.0,N
1576950415.6,286047001.2,N
1576950435.4,286046999.0,N
1576950455.2,286046998.8,N
1576950475.1,286046998.7,N
1576950476.0,286046998.7,N
1576950495.8,286046998.6,N
1576950515.7,286046996.7,N
1576950535.5,286046997.0,N
1576950555.3,286046997.9,N
1576950575.2,286046995.0,N
1576950595.0,286046997.2,N
1576950595.9,286046997.2,N
1576950615.8,286046994.9,Y
1576950635.6,286046996.9,P
1576950655.4,286046996.6,P
1576950675.3,286046998.4,N
1576950695.1,286046998.6,N
1576950715.8,286047000.8,N
1576950735.7,286047000.3,N
1576950755.5,286047000.1,N
1576950775.4,286047001.1,N
1576950795.2,286047001.2,N
1576950815.0,286047001.1,N
1576950815.9,286047001.1,N
1576950835.8,286047001.1,N
1576950855.6,286047000.6,N
1576950875.4,286047001.5,N
1576950895.3,286046999.8,N
1576950915.1,286047001.4,N
1576950935.9,286047003.9,N
1576950955.7,286047001.6,N
1576950975.5,286047001.6,N
1576950995.4,286047001.5,N
1576951015.2,286047001.9,N
1576951035.0,286046999.8,N
1576951035.9,286046999.8,N
1576951055.8,286046998.2,N
1576951075.6,286046998.7,N
1576951095.5,286046998.6,N
1576951115.3,286046999.4,N
1576951135.1,286046998.5,N
1576951155.9,286046998.3,N
1576951175.7,286047000.9,N
1576951195.6,286047000.2,N
